Location: Cherry Springs State Park
(41.6616°N, 77.8240°W)
Time: 09:36:29
(UTC-05:00)

Daily predictions for brighter satellites

Satellite Brightness Start Highest point End
(mag) Time Altitude Azimuth Time Altitude Azimuth Time Altitude Azimuth
Cosmos 2279 Rocket 4.2 17:37:34 10° N 17:43:35 48° ENE 17:49:34 10° SSE
Cosmos 2228 Rocket 4.1 17:40:17 10° NNW 17:44:35 52° W 17:48:54 10° S
Lacrosse 4 Rocket 3.1 17:42:50 10° NNE 17:45:07 14° NE 17:47:23 10° E
Cosmos 1151 Rocket 3.0 17:42:13 10° N 17:46:31 77° E 17:50:49 10° SSE
Cosmos 1743 Rocket 4.4 17:42:29 10° SSW 17:46:53 56° W 17:51:18 10° N
Cosmos 372 Rocket 3.9 17:45:57 10° NNW 17:51:05 79° ENE 17:56:11 10° SSE
IDEFIX/ARIANE 42P 3.1 17:47:21 10° S 17:52:31 66° WSW 17:57:45 10° NNW
Cosmos 540 Rocket 3.6 17:49:07 10° SSW 17:54:17 81° WNW 17:59:29 10° NNE
Aureole 2 Rocket 2.7 17:50:42 10° SSW 17:54:27 78° ESE 17:58:34 10° NNE
CORIOLIS 4.4 17:52:24 10° S 17:57:45 79° WSW 18:03:09 10° NNW
USA 215 3.8 17:54:46 10° E 18:00:44 39° NNE 18:06:42 10° NW
Cosmos 2058 2.8 17:57:27 10° S 18:01:32 71° E 18:05:37 10° NNE
Cosmos 1980 4.2 17:56:49 10° SW 18:02:27 64° WNW 18:08:06 10° NNE
ATLAS 5 CENTAUR R/B 4.3 18:02:13 10° NNE 18:03:11 10° NNE 18:04:10 10° NNE
Lacrosse 5 4.0 18:01:48 10° NW 18:04:26 14° N 18:07:04 10° NNE
Cosmos 1805 Rocket 3.9 18:00:57 10° SSE 18:05:12 45° E 18:09:28 10° NNE
SKYMED 2 3.6 18:03:14 10° NNE 18:07:32 57° E 18:11:48 10° S
Cosmos 1461 2.8 18:03:44 10° SSW 18:07:54 70° ESE 18:11:58 10° NE
Cosmos 1900 4.3 18:03:00 10° NNW 18:07:57 63° ENE 18:12:54 10° SE
Cosmos 2180 Rocket 4.4 18:06:32 10° N 18:12:41 67° E 18:18:52 10° SSE
Meteor 1-11 4.3 18:08:20 10° S 18:14:02 89° W 18:19:51 10° N
Cosmos 1626 2.5 18:10:48 10° SSE 18:14:19 40° E 18:17:51 10° NNE
Aureole 1 Rocket 4.4 18:11:31 10° SSE 18:16:30 37° E 18:22:51 10° NNE
Sich 1 3.5 18:14:06 10° SSE 18:18:15 40° E 18:22:25 10° NNE
Cosmos 2219 Rocket 3.8 18:14:35 10° WSW 18:19:34 32° WNW 18:24:35 10° N
CZ-2C R/B 4.3 18:15:46 10° SSW 18:20:14 34° W 18:24:37 10° NNW
Lacrosse 5 rocket 2.8 18:17:06 10° WNW 18:20:37 37° SW 18:24:19 10° SSE
Cosmos 1356 Rocket 3.5 18:17:43 10° S 18:21:34 50° E 18:25:27 10° NNE
ALOS 3.3 18:20:53 10° ESE 18:24:35 24° ENE 18:28:19 10° NNE
Cosmos 1092 Rocket 4.5 18:20:00 10° SSE 18:25:45 38° E 18:31:32 10° NNE
Cosmos 2333 Rocket 3.7 18:21:13 10° WSW 18:26:21 35° WNW 18:31:32 10° N
Cosmos 1603 4.5 18:22:15 10° SSE 18:27:02 29° ESE 18:30:06 18° ENE
Cosmos 1726 4.3 18:25:00 10° NNW 18:28:20 30° W 18:31:39 10° SSW
Cosmos 1633 Rocket 3.3 18:24:23 10° SSE 18:28:35 46° E 18:32:47 10° NNE
CENTAUR R/B 4.4 18:28:05 10° W 18:33:04 23° NNW 18:38:31 10° NNE
Cosmos 2278 Rocket 3.9 18:28:29 10° NW 18:33:38 36° WSW 18:38:45 10° S
Coronas F rocket 2.6 18:32:29 10° SSE 18:33:36 21° SE 18:33:36 21° SE
Cosmos 1455 2.1 18:32:19 10° N 18:36:06 61° E 18:39:53 10° SSE
FAST Rocket 3.8 18:36:22 10° S 18:38:57 83° E 18:41:55 10° N
USA 229 DEB 3.8 18:35:24 10° SSW 18:42:04 58° ESE 18:47:09 19° NE
USA 229 3.8 18:35:30 10° SSW 18:42:10 57° ESE 18:47:12 19° NE
Abrixas 3.8 18:39:41 10° WNW 18:42:17 27° NNW 18:42:57 25° N
Cosmos 1703 3.8 18:41:20 10° SSW 18:45:10 58° W 18:49:02 10° N
Cosmos 1184 Rocket 2.6 18:43:16 10° S 18:46:36 81° E 18:48:42 21° NNE
SJ-6B 2.8 18:44:53 10° SSE 18:48:57 69° ENE 18:53:05 10° N
Spot 2 Rocket 3.9 18:44:58 10° SE 18:49:37 39° ENE 18:54:17 10° N
Iridium 4 Rocket 3.1 18:49:04 10° SSE 18:53:24 54° E 18:57:11 12° NNE
Cosmos 1707 Rocket 4.0 18:49:44 10° NNW 18:54:01 61° W 18:58:18 10° S
COSMO-SKYMED 1 3.8 18:51:25 10° N 18:55:31 41° WNW 18:59:35 10° SW
SL-19 R/B 4.3 18:51:19 10° SSE 18:57:03 61° ENE 19:02:33 10° N
Cosmos 2237 Rocket 4.1 18:53:16 10° WSW 18:57:57 26° NW 19:02:41 10° N
Cosmos 2369 Rocket 3.0 18:56:33 10° N 19:01:00 29° NE 19:01:00 29° NE
Cosmos 1666 Rocket 4.2 19:00:27 10° SSW 19:04:42 56° W 19:09:02 10° N
H-2A ROCKET BODY 4.1 18:41:40 10° WSW 19:04:51 38° SSW 19:09:18 18° SE
SL-16 R/B 3.0 19:00:37 10° SW 19:06:04 49° WNW 19:11:34 10° NNE
FREGAT/IRIS 3.1 19:04:35 10° S 19:07:35 61° W 19:10:38 10° NNW
Resurs 01 Rocket 1.5 19:12:15 33° SSE 19:14:07 67° ENE 19:18:33 10° N
Cosmos 923 Rocket 3.8 19:09:24 10° SSW 19:14:36 81° ESE 19:16:59 33° NNE
Cosmos 1933 Rocket 3.4 19:11:47 10° S 19:16:12 71° E 19:16:31 67° ENE
Cosmos 1680 Rocket 3.3 19:15:52 10° S 19:21:02 71° ESE 19:22:05 55° NE
Cosmos 1655 Rocket 4.1 19:16:29 10° SSE 19:22:37 52° E 19:24:06 43° NE
CZ-4C R/B 4.1 19:18:47 10° NNW 19:23:28 22° NNE 19:23:28 22° NNE
Lacrosse 4 Rocket 1.7 19:20:12 10° NW 19:24:13 60° WSW 19:25:17 43° S
Cosmos 1627 Rocket 4.3 19:18:49 10° S 19:24:58 71° E 19:31:04 10° NNE
Cosmos 1869 4.3 19:26:28 10° NNW 19:30:22 46° W 19:34:14 10° SSW
FENGYUN 3A 3.6 19:25:10 10° SSE 19:30:31 83° WSW 19:35:57 10° NNW
Tiangong 1 3.8 19:27:57 10° SW 19:28:39 15° SW 19:28:39 15° SW
NOSS 3-1 (C) 3.7 19:28:12 10° S 19:32:51 46° SE 19:32:51 46° SE
Cosmos 1470 Rocket 4.0 19:33:27 10° SSW 19:37:45 60° W 19:38:13 56° NW
USA 215 3.3 19:40:52 41° SE 19:43:25 77° SW 19:50:00 10° NW
Cosmos 1943 3.9 19:38:17 10° S 19:41:55 39° S 19:41:55 39° S
ATLAS 3B R/B 4.4 19:42:31 10° NNW 19:45:53 17° NNE 19:45:53 17° NNE
Lacrosse 5 3.9 19:45:25 10° NNW 19:47:19 17° N 19:47:19 17° N
ATLAS 5 CENTAUR R/B 3.7 19:44:26 10° NNW 19:47:23 25° N 19:47:23 25° N
Cosmos 2026 Rocket 3.9 19:45:54 10° S 19:52:06 80° W 19:55:59 24° N
Cosmos 2112 Rocket 4.4 19:52:26 10° SSW 19:57:12 62° W 19:57:12 62° W
ALOS 3.7 19:57:33 10° SSW 20:01:50 36° W 20:06:09 10° NNW
Cosmos 1943 Rocket 4.2 20:01:29 10° NNW 20:02:44 17° N 20:02:44 17° N
Cosmos 2369 Rocket 4.1 20:40:20 10° NW 20:42:50 25° NW 20:42:50 25° NW
